Location: *
(50.9167°S, 179.4000°W)
Time: 20:09:34
(UTC+00:00)

NOSS 3-4 (A) - Pass Details

Date: 03 March 2024
Orbit: 810 x 1402 km, 63.4° (Epoch: 05 March)

Event Time Altitude Azimuth Distance (km) Brightness Sun altitude
Exits shadow 12:16:02 67° 292° (WNW) 1,455 4.1 -32.5°
Maximum altitude 12:17:19 81° 225° (SW) 1,360 4.1 -32.5°
Drops below altitude 10° 12:25:16 10° 136° (SE) 3,200 6.7 -32.5°
Sets 12:27:54 0° 134° (SE) 4,089 7.4 -32.4°
